Location: Centerville
(32.8776°N, 96.6203°W)
Time: 00:18:14
(UTC+00:00)

BREEZE-M DEB (TANK) - Pass Details

Date: 17 June 2021
Orbit: 320 x 13077 km, 49.7° (Epoch: 01 August)

Event Time Altitude Azimuth Distance (km) Brightness Sun altitude
Rises 02:41:14 0° 308° (NW) 10,738 11.5 -12.1°
Reaches altitude 10° 02:51:56 10° 310° (NW) 7,419 10.0 -13.8°
Maximum altitude 03:08:57 90° 221° (SW) 1,231 4.5 -16.5°
Enters shadow 03:11:51 28° 132° (SE) 1,553 4.5 -16.9°
